NOAA 16 DEB

Satellite information

Favourite Embed

Satellite Type and Status

DEBRISIN ORBIT

Key statistics

Satellite NOAA 16 DEB at a glance.

Uptime

9000

Days in orbit

Revolutions

≈ 14.5

Per day

Orbit

SSO

Sun Synchronous Orbit

Inclination

98.9

Latest

Satellite identification and parameters

Extended collection of information and parameters for NOAA 16 DEB.

Object identification

Identified? True

Debris? True

Object name: NOAA 16 DEB

International designator: 2000-055JJ

Object number (NORAD): 41365

Object ID (CCSDS): 41365

Country: UNITED STATES OF AMERICA (US)

Current information (Y/N): Y

RCS size: SMALL

Orbital parameters

Period: 99.386 minutes

Inclination: 98.9191 deg

SMA: 7107.405 km

Apoapsis: 751.05 km

Periapsis: 707.49 km

RAAN: 286.2769 deg

Eccentricy: 0.0030644

Argument of periapsis: 250.8634 deg

Mean anomaly: 108.9239 deg

Mean motion: 14.48892514 rev/day

Mean motion (dot): 0.00009336 rev/day2

B* drag term: 0.0024629 1/REarth

Two-line elements (TLE)

Creation date: May 11, 2025, 2:26 p.m.

Reference frame: TEME

Reference center: EARTH

Epoch: May 8, 2025, 9:25 a.m. UTC

TLE line 0: 0 NOAA 16 DEB

TLE line 1: 1 41365U 00055JJ 25128.39251468 .00009336 00000-0 24629-2 0 9991

TLE line 2: 2 41365 98.9191 286.2769 0030644 250.8634 108.9239 14.48892514480799

Live tracking on map

Real-time ground track for satellite NOAA 16 DEB.

In-orbit conjunctions

A list of the most updated potential collisions computed for object NOAA 16 DEB.

Target Orbit TCA Probability of collision Miss distance Type
COSMOS 2251 DEB LEO 2024-11-12 15:20:16 0.0001496073 167.0 (m) DEBRIS
CZ-4C R/B LEO 2024-09-29 01:01:46 0.0002604059 507.0 (m) ROCKET BODY

Associated space launch

The NOAA K, L and M POES satellites begin the fifth generation of improved environmental monitoring in support of NOAA missions. The instrument payload has significant improvements and additions/deletions. The instrument changes have effected the spacecraft subsystems and data formats.

NOAA 16 DEB was lifted into orbit during the mission ‘Titan II SLV | NOAA 16’, on board a Titan II SLV space rocket.

The launch took place on Sept. 21, 2000, 10:22 a.m. from Space Launch Complex 4W.

For more information about the launch, click the button.

Launch to space Titan II SLV | NOAA 16
Titan II SLV | NOAA 16

Agency: N/A

Status: Launch Successful

Launch date: Sept. 21, 2000, 10:22 a.m. UTC

Rocket: Titan II SLV

Launch pad: Space Launch Complex 4W

Location: Vandenberg SFB, CA, USA

...

Latest news about this satellite

There are no fresh news available about this satellite. Check back as we update our databases every day.


Newsletter sign-up

Weekly statistics, charts and insights to help you stay on top of the space industry.